QFA123 YSSY-VABB

Flight info

Callsign QFA123
Flight time N/A
Altitude 20000
Route WOL2/34L WOL W652 ODALE W113 AKMIR W440 PKS/N0474F340 G222 GOMUL/N0475F360 G222 ONALA/N0476F380 G222 SAPDA L896 PAKRA/N0466F400 L896 MMV Q8 AGELA MOLGO2A
Aircraft A332/H-SDE3GHIJ2J3J5M1RVWXY/LB2D1

Departure

Time 2026-04-26 03:46
Airport Sydney Kingsford Smith International Airport (YSSY)

Arrival

Time N/A
Airport Chhatrapati Shivaji Maharaj International Airport (VABB)
Time Latitude Longitude Altitude Speed Heading
2026-04-26 03:02 -33.93797 151.16950 34 ft 0 kts 254°
2026-04-26 03:34 -33.93792 151.16970 34 ft 4 kts 254°
2026-04-26 03:34 -33.93785 151.17001 34 ft 4 kts 254°
2026-04-26 03:34 -33.93779 151.17026 33 ft 4 kts 268°
2026-04-26 03:34 -33.93785 151.17054 30 ft 4 kts 320°
2026-04-26 03:35 -33.93806 151.17066 32 ft 2 kts 348°
2026-04-26 03:35 -33.93786 151.17061 31 ft 4 kts 348°
2026-04-26 03:35 -33.93774 151.17057 32 ft 0 kts 348°
2026-04-26 03:39 -33.93727 151.17068 33 ft 9 kts 44°
2026-04-26 03:40 -33.93724 151.17145 33 ft 11 kts 130°
2026-04-26 03:40 -33.93802 151.17180 32 ft 12 kts 167°
2026-04-26 03:40 -33.93884 151.17202 32 ft 12 kts 167°
2026-04-26 03:40 -33.93962 151.17222 33 ft 13 kts 168°
2026-04-26 03:41 -33.94117 151.17263 32 ft 32 kts 167°
2026-04-26 03:41 -33.94361 151.17326 34 ft 36 kts 168°
2026-04-26 03:41 -33.94601 151.17388 34 ft 34 kts 168°
2026-04-26 03:41 -33.94827 151.17446 33 ft 32 kts 168°
2026-04-26 03:42 -33.95043 151.17503 33 ft 31 kts 168°
2026-04-26 03:42 -33.95246 151.17555 33 ft 29 kts 167°
2026-04-26 03:42 -33.95439 151.17605 33 ft 27 kts 168°
2026-04-26 03:42 -33.95647 151.17659 34 ft 34 kts 168°
2026-04-26 03:43 -33.95873 151.17717 34 ft 32 kts 167°
2026-04-26 03:43 -33.96087 151.17773 34 ft 30 kts 168°
2026-04-26 03:43 -33.96289 151.17826 34 ft 29 kts 167°
2026-04-26 03:43 -33.96385 151.17852 34 ft 10 kts 167°
2026-04-26 03:44 -33.96433 151.17909 34 ft 13 kts 104°
2026-04-26 03:44 -33.96418 151.18027 33 ft 7 kts 76°
2026-04-26 03:44 -33.96390 151.18052 33 ft 5 kts 360°
2026-04-26 03:44 -33.96335 151.18040 33 ft 6 kts 349°
2026-04-26 03:45 -33.96221 151.18014 32 ft 42 kts 349°
2026-04-26 03:45 -33.95759 151.17892 32 ft 92 kts 348°
2026-04-26 03:45 -33.94983 151.17689 32 ft 135 kts 348°
2026-04-26 03:45 -33.93943 151.17417 40 ft 170 kts 348°
2026-04-26 03:46 -33.92790 151.17095 531 ft 167 kts 348°
2026-04-26 03:46 -33.91674 151.16758 1140 ft 165 kts 340°
2026-04-26 03:46 -33.90764 151.15962 1703 ft 164 kts 309°
2026-04-26 03:47 -33.89779 151.13290 2433 ft 185 kts 295°
2026-04-26 03:47 -33.89203 151.11888 2756 ft 189 kts 303°
2026-04-26 03:47 -33.88747 151.10387 3074 ft 196 kts 282°
2026-04-26 03:47 -33.88437 151.08743 3287 ft 207 kts 285°
2026-04-26 03:48 -33.88041 151.07016 3438 ft 222 kts 290°
2026-04-26 03:48 -33.87504 151.05203 3622 ft 238 kts 292°
2026-04-26 03:48 -33.86928 151.03260 3850 ft 256 kts 289°
2026-04-26 03:48 -33.86367 151.01172 4251 ft 265 kts 289°
2026-04-26 03:49 -33.85816 150.99067 4941 ft 264 kts 288°
2026-04-26 03:49 -33.85277 150.96973 5515 ft 267 kts 288°
2026-04-26 03:49 -33.84729 150.94812 6043 ft 272 kts 288°
2026-04-26 03:49 -33.84177 150.92619 6613 ft 276 kts 287°